Weather History for West Palm Beach, FL

Change the Weather History Date:

Thursday, March 21, 2013

  Actual Average Record
Temperature  
Mean Temperature 66 °F 71 °F  
Max Temperature 75 °F 79 °F 92 °F (2003)
Min Temperature 56 °F 63 °F 41 °F (1971)
Degree Days  
Heating Degree Days 0 1  
Month to date heating degree days 59 21  
Since 1 July heating degree days 142 226  
Cooling Degree Days 1 6  
Month to date cooling degree days 50 124  
Year to date cooling degree days 431 359  
Growing Degree Days 18 (Base 50)    
Moisture  
Dew Point 51 °F    
Average Humidity 63    
Maximum Humidity 93    
Minimum Humidity 33    
Precipitation  
Precipitation 0.00 in 0.15 in 5.58 in (1993)
Month to date precipitation 0.57 3.09  
Year to date precipitation 3.76 9.04  
Snow  
Snow 0.00 in - - ()
Month to date snowfall 0.0  
Since 1 July snowfall 0.0  
Snow Depth 0.00 in    
Sea Level Pressure  
Sea Level Pressure 29.89 in    
Wind  
Wind Speed 8 mph (NNW)    
Max Wind Speed 16 mph    
Max Gust Speed 22 mph    
Visibility 10 miles    
Events      
T = Trace of Precipitation, MM = Missing Value Source: NWS Daily Summary

Daily Weather History Graph

Daily Weather History Graph

Search for Another Location

Airport:

Trip Planner

Search our weather history database for the weather conditions in past years. The results will help you decide how hot, cold, wet, or windy it might be!

Date:

Astronomy

Mar. 21, 2013 Rise Set
Actual Time 7:22 AM EDT 7:32 PM EDT
Civil Twilight 6:59 AM EDT 7:55 PM EDT
Nautical Twilight 6:32 AM EDT 8:22 PM EDT
Astronomical Twilight 6:05 AM EDT 8:49 PM EDT
Moon 2:26 PM EDT 3:16 AM EDT
Length of Visible Light 12h 55m
Length of Day
12h 09m
Waxing Gibbous, 68% of the Moon is Illuminated
Mar 21
Waxing Gibbous
Mar 27
Full
Apr 3
Last Quarter
Apr 10
New
Apr 18
First Quarter

Hourly Weather History & Observations

Time (EDT) Temp. Dew Point Humidity Pressure Visibility Wind Dir Wind Speed Gust Speed Precip Events Conditions
12:53 AM 64.0 °F 60.1 °F 87% 29.84 in 10.0 mi WNW 13.8 mph - N/A   Scattered Clouds
1:53 AM 64.0 °F 60.1 °F 87% 29.83 in 10.0 mi WNW 11.5 mph - N/A   Scattered Clouds
2:53 AM 63.0 °F 60.1 °F 90% 29.83 in 10.0 mi WNW 11.5 mph - N/A   Partly Cloudy
3:53 AM 63.0 °F 61.0 °F 93% 29.83 in 10.0 mi WNW 8.1 mph - N/A   Scattered Clouds
4:11 AM 62.6 °F 60.8 °F 94% 29.83 in 10.0 mi WNW 9.2 mph - N/A   Partly Cloudy
4:53 AM 63.0 °F 60.1 °F 90% 29.84 in 10.0 mi NW 11.5 mph - N/A   Partly Cloudy
5:21 AM 62.6 °F 60.8 °F 94% 29.84 in 10.0 mi NNW 12.7 mph - N/A   Mostly Cloudy
5:53 AM 63.0 °F 60.1 °F 90% 29.85 in 10.0 mi NNW 16.1 mph - N/A   Mostly Cloudy
6:22 AM 62.6 °F 57.2 °F 82% 29.86 in 10.0 mi NNW 10.4 mph - N/A   Scattered Clouds
6:53 AM 62.1 °F 57.0 °F 84% 29.87 in 10.0 mi NNW 11.5 mph - N/A   Partly Cloudy
7:53 AM 61.0 °F 54.0 °F 78% 29.89 in 10.0 mi NNW 12.7 mph - N/A   Partly Cloudy
8:53 AM 62.1 °F 51.1 °F 67% 29.91 in 10.0 mi North 11.5 mph - N/A   Scattered Clouds
9:53 AM 66.0 °F 51.1 °F 59% 29.94 in 10.0 mi NNW 9.2 mph - N/A   Scattered Clouds
10:53 AM 68.0 °F 50.0 °F 52% 29.94 in 10.0 mi Variable 6.9 mph - N/A   Scattered Clouds
11:53 AM 71.1 °F 48.0 °F 44% 29.93 in 10.0 mi NNE 6.9 mph - N/A   Scattered Clouds
12:53 PM 72.0 °F 46.0 °F 40% 29.92 in 10.0 mi NNW 9.2 mph - N/A   Scattered Clouds
1:53 PM 72.0 °F 45.0 °F 38% 29.90 in 10.0 mi Variable 3.5 mph - N/A   Scattered Clouds
2:53 PM 73.9 °F 42.1 °F 32% 29.89 in 10.0 mi NNW 8.1 mph 16.1 mph N/A   Scattered Clouds
3:53 PM 72.0 °F 44.1 °F 37% 29.88 in 10.0 mi NE 13.8 mph - N/A   Partly Cloudy
4:53 PM 72.0 °F 42.1 °F 34% 29.88 in 10.0 mi NE 15.0 mph - N/A   Partly Cloudy
5:53 PM 70.0 °F 43.0 °F 38% 29.88 in 10.0 mi NE 11.5 mph - N/A   Partly Cloudy
6:53 PM 68.0 °F 44.1 °F 42% 29.90 in 10.0 mi NE 5.8 mph - N/A   Partly Cloudy
7:53 PM 66.0 °F 43.0 °F 43% 29.92 in 10.0 mi East 4.6 mph - N/A   Partly Cloudy
8:53 PM 66.0 °F 46.0 °F 48% 29.92 in 10.0 mi ESE 3.5 mph - N/A   Clear
9:53 PM 63.0 °F 46.9 °F 56% 29.94 in 10.0 mi Calm Calm - N/A   Clear
10:53 PM 61.0 °F 46.9 °F 60% 29.95 in 10.0 mi Calm Calm - N/A   Partly Cloudy
11:53 PM 57.9 °F 48.9 °F 72% 29.95 in 10.0 mi Calm Calm - N/A   Partly Cloudy